QPF
0.09 0.06 0.06 0.06 0.05 0.05 0.07 0.08 0.07 0.08 0.08 0.09 0.10 0.11 0.10 0.11 0.11 0.11 0.09 0.08 0.07 0.07 0.12 0.15 0.13 0.11 0.13 0.16 0.15 0.10 0.09 0.11 0.14 0.13 0.16 0.21 0.16 0.10 0.06 0.06 0.08 0.07 0.05
0.06 0.04 0.05 0.06 0.07 0.07 0.06 0.06 0.08 0.08 0.08 0.09 0.10 0.11 0.10 0.11 0.12 0.12 0.11 0.10 0.10 0.11 0.14 0.14 0.10 0.10 0.11 0.16 0.15 0.10 0.08 0.09 0.12 0.15 0.16 0.16 0.13 0.08 0.06 0.07 0.07 0.06 0.04
0.06 0.05 0.05 0.06 0.08 0.09 0.07 0.05 0.08 0.09 0.08 0.10 0.11 0.11 0.10 0.13 0.16 0.14 0.14 0.15 0.15 0.15 0.13 0.10 0.07 0.06 0.07 0.12 0.15 0.11 0.09 0.10 0.12 0.15 0.18 0.14 0.10 0.08 0.06 0.06 0.05 0.05 0.03
0.07 0.06 0.05 0.05 0.08 0.10 0.07 0.06 0.07 0.08 0.08 0.09 0.11 0.12 0.11 0.15 0.18 0.16 0.14 0.13 0.14 0.11 0.09 0.08 0.06 0.06 0.06 0.09 0.12 0.12 0.09 0.09 0.12 0.17 0.16 0.13 0.11 0.09 0.06 0.05 0.04 0.04 0.04
0.07 0.06 0.06 0.03 0.05 0.08 0.06 0.04 0.04 0.05 0.07 0.11 0.12 0.12 0.12 0.13 0.15 0.13 0.12 0.11 0.09 0.08 0.08 0.06 0.05 0.06 0.07 0.07 0.10 0.12 0.10 0.11 0.18 0.16 0.11 0.12 0.12 0.10 0.06 0.06 0.06 0.07 0.06
0.08 0.06 0.05 0.03 0.04 0.05 0.05 0.03 0.04 0.05 0.07 0.09 0.10 0.14 0.15 0.15 0.12 0.11 0.11 0.10 0.09 0.07 0.07 0.07 0.06 0.07 0.08 0.07 0.08 0.11 0.12 0.14 0.19 0.14 0.13 0.11 0.12 0.11 0.09 0.08 0.07 0.08 0.07
0.10 0.07 0.06 0.08 0.07 0.05 0.04 0.05 0.06 0.07 0.07 0.09 0.14 0.16 0.15 0.13 0.09 0.09 0.11 0.10 0.08 0.07 0.08 0.07 0.05 0.08 0.10 0.08 0.08 0.09 0.12 0.17 0.15 0.14 0.13 0.12 0.10 0.09 0.08 0.08 0.06 0.06 0.06
0.08 0.06 0.10 0.11 0.09 0.05 0.05 0.05 0.06 0.08 0.10 0.14 0.16 0.17 0.13 0.08 0.07 0.07 0.09 0.09 0.08 0.07 0.06 0.05 0.06 0.13 0.12 0.08 0.07 0.08 0.11 0.15 0.12 0.13 0.14 0.16 0.14 0.08 0.07 0.08 0.07 0.06 0.07
0.07 0.06 0.09 0.10 0.09 0.06 0.05 0.06 0.06 0.06 0.07 0.09 0.09 0.10 0.10 0.10 0.10 0.08 0.07 0.07 0.05 0.04 0.05 0.06 0.07 0.13 0.17 0.10 0.07 0.08 0.11 0.15 0.11 0.14 0.19 0.23 0.18 0.12 0.09 0.07 0.08 0.10 0.11
0.06 0.09 0.09 0.10 0.13 0.11 0.08 0.09 0.07 0.05 0.05 0.06 0.06 0.07 0.09 0.09 0.10 0.08 0.06 0.05 0.04 0.04 0.04 0.05 0.05 0.09 0.13 0.12 0.07 0.08 0.11 0.13 0.11 0.13 0.21 0.26 0.21 0.14 0.10 0.09 0.11 0.12 0.11
0.05 0.06 0.07 0.07 0.10 0.10 0.08 0.07 0.06 0.05 0.04 0.05 0.05 0.06 0.10 0.10 0.09 0.08 0.06 0.05 0.04 0.03 0.03 0.03 0.04 0.06 0.10 0.12 0.10 0.10 0.14 0.17 0.18 0.20 0.22 0.22 0.18 0.16 0.15 0.13 0.14 0.15 0.15
0.04 0.03 0.04 0.03 0.05 0.07 0.08 0.08 0.10 0.09 0.06 0.06 0.06 0.06 0.08 0.08 0.06 0.04 0.05 0.04 0.04 0.03 0.03 0.03 0.04 0.07 0.10 0.12 0.12 0.12 0.18 0.19 0.20 0.23 0.26 0.23 0.18 0.19 0.21 0.19 0.18 0.15 0.15
0.03 0.02 0.02 0.03 0.04 0.05 0.08 0.07 0.08 0.09 0.08 0.05 0.05 0.05 0.07 0.07 0.05 0.04 0.05 0.05 0.05 0.05 0.06 0.06 0.07 0.08 0.09 0.09 0.08 0.10 0.15 0.18 0.12 0.11 0.14 0.16 0.19 0.21 0.22 0.21 0.18 0.16 0.16
0.03 0.02 0.02 0.04 0.05 0.06 0.06 0.06 0.06 0.05 0.05 0.05 0.05 0.06 0.06 0.07 0.06 0.07 0.06 0.05 0.05 0.06 0.06 0.06 0.08 0.06 0.06 0.07 0.06 0.06 0.09 0.17 0.14 0.11 0.11 0.10 0.10 0.12 0.14 0.16 0.17 0.17 0.17
0.03 0.04 0.02 0.03 0.05 0.06 0.07 0.06 0.05 0.05 0.04 0.04 0.04 0.07 0.07 0.07 0.07 0.07 0.07 0.05 0.05 0.04 0.06 0.05 0.05 0.05 0.04 0.05 0.05 0.06 0.07 0.10 0.12 0.10 0.09 0.08 0.06 0.07 0.08 0.10 0.11 0.11 0.13
0.02 0.03 0.04 0.04 0.04 0.04 0.05 0.05 0.04 0.04 0.04 0.03 0.04 0.05 0.08 0.10 0.09 0.08 0.08 0.07 0.06 0.05 0.05 0.05 0.05 0.06 0.06 0.05 0.06 0.07 0.08 0.09 0.09 0.08 0.09 0.09 0.06 0.06 0.06 0.08 0.11 0.09 0.10
0.01 0.02 0.03 0.04 0.05 0.04 0.04 0.04 0.03 0.03 0.03 0.03 0.03 0.06 0.09 0.10 0.09 0.08 0.08 0.07 0.06 0.04 0.05 0.05 0.07 0.06 0.07 0.07 0.07 0.08 0.08 0.10 0.09 0.10 0.10 0.08 0.07 0.05 0.06 0.07 0.11 0.12 0.13
0.01 0.01 0.01 0.02 0.04 0.05 0.05 0.05 0.04 0.03 0.03 0.03 0.03 0.07 0.12 0.11 0.09 0.09 0.08 0.07 0.06 0.05 0.06 0.07 0.07 0.06 0.08 0.08 0.08 0.07 0.07 0.10 0.09 0.10 0.12 0.10 0.08 0.05 0.05 0.06 0.10 0.15 0.17
0.02 0.02 0.02 0.02 0.04 0.06 0.06 0.07 0.06 0.06 0.04 0.04 0.04 0.09 0.14 0.12 0.09 0.08 0.08 0.08 0.07 0.06 0.06 0.06 0.08 0.07 0.09 0.09 0.09 0.09 0.07 0.09 0.08 0.07 0.09 0.10 0.12 0.10 0.07 0.06 0.08 0.12 0.14
0.02 0.03 0.03 0.03 0.05 0.05 0.06 0.08 0.08 0.06 0.05 0.03 0.04 0.07 0.10 0.09 0.07 0.07 0.07 0.09 0.09 0.08 0.08 0.09 0.10 0.10 0.09 0.10 0.10 0.08 0.06 0.04 0.06 0.07 0.06 0.06 0.06 0.07 0.09 0.10 0.10 0.11 0.13
0.01 0.03 0.05 0.04 0.05 0.05 0.07 0.07 0.07 0.06 0.04 0.03 0.02 0.03 0.05 0.05 0.06 0.07 0.07 0.08 0.09 0.09 0.09 0.09 0.11 0.11 0.11 0.11 0.10 0.07 0.06 0.04 0.05 0.06 0.05 0.05 0.05 0.05 0.07 0.10 0.13 0.12 0.11
0.01 0.02 0.03 0.03 0.04 0.05 0.07 0.08 0.08 0.06 0.04 0.03 0.03 0.03 0.02 0.03 0.04 0.05 0.06 0.05 0.06 0.09 0.11 0.12 0.13 0.13 0.10 0.08 0.10 0.10 0.10 0.10 0.06 0.04 0.04 0.04 0.04 0.04 0.03 0.05 0.08 0.10 0.10
0.01 0.01 0.01 0.02 0.04 0.05 0.07 0.08 0.07 0.06 0.05 0.03 0.04 0.05 0.04 0.04 0.05 0.05 0.05 0.04 0.06 0.08 0.12 0.14 0.13 0.14 0.10 0.07 0.07 0.10 0.12 0.10 0.07 0.05 0.03 0.04 0.04 0.04 0.04 0.05 0.05 0.07 0.10
0.01 0.01 0.01 0.02 0.03 0.03 0.05 0.07 0.07 0.06 0.05 0.04 0.04 0.06 0.06 0.05 0.04 0.04 0.04 0.05 0.06 0.07 0.11 0.11 0.10 0.11 0.10 0.07 0.06 0.05 0.06 0.08 0.08 0.09 0.08 0.08 0.07 0.06 0.05 0.05 0.06 0.08 0.09
0.01 0.01 0.01 0.01 0.02 0.02 0.03 0.06 0.08 0.07 0.06 0.06 0.06 0.07 0.07 0.07 0.05 0.04 0.04 0.05 0.05 0.06 0.08 0.10 0.12 0.10 0.08 0.06 0.05 0.05 0.05 0.07 0.08 0.09 0.09 0.08 0.08 0.08 0.06 0.06 0.07 0.08 0.10
0.01 0.02 0.01 0.00 0.01 0.02 0.02 0.04 0.08 0.09 0.07 0.07 0.08 0.08 0.08 0.08 0.06 0.04 0.05 0.05 0.04 0.05 0.06 0.07 0.09 0.09 0.09 0.07 0.06 0.04 0.04 0.05 0.06 0.08 0.09 0.09 0.09 0.09 0.06 0.07 0.06 0.07 0.07
MSLP
1004.97 1004.65 1004.37 1004.07 1003.74 1003.35 1002.93 1002.49 1002.04 1001.51 1000.79 999.71 998.09 995.83 992.93 989.52 985.93 982.56 979.93 978.43 978.35 979.73 982.40 985.98 989.99 993.92 997.35 1000.03 1001.92 1003.13 1003.91 1004.51 1005.14 1005.96 1006.97 1008.08 1009.17 1010.11 1010.83 1011.29 1011.56 1011.72 1011.85
1005.09 1004.83 1004.58 1004.31 1003.97 1003.57 1003.12 1002.64 1002.15 1001.60 1000.90 999.89 998.41 996.34 993.67 990.53 987.20 984.06 981.59 980.18 980.07 981.33 983.79 987.11 990.84 994.49 997.69 1000.20 1001.99 1003.15 1003.93 1004.57 1005.26 1006.13 1007.17 1008.30 1009.39 1010.32 1011.01 1011.45 1011.69 1011.83 1011.96
1005.06 1004.88 1004.72 1004.52 1004.23 1003.85 1003.41 1002.91 1002.41 1001.87 1001.23 1000.35 999.08 997.33 995.05 992.35 989.46 986.73 984.55 983.30 983.18 984.27 986.41 989.30 992.55 995.74 998.53 1000.71 1002.27 1003.32 1004.06 1004.71 1005.44 1006.35 1007.41 1008.54 1009.60 1010.49 1011.13 1011.54 1011.76 1011.91 1012.05
1004.87 1004.79 1004.74 1004.65 1004.46 1004.15 1003.75 1003.28 1002.79 1002.28 1001.71 1000.99 999.99 998.62 996.82 994.67 992.34 990.11 988.34 987.30 987.20 988.09 989.84 992.22 994.89 997.49 999.74 1001.51 1002.78 1003.66 1004.33 1004.97 1005.73 1006.66 1007.72 1008.81 1009.82 1010.64 1011.22 1011.58 1011.79 1011.95 1012.13
1004.56 1004.58 1004.65 1004.69 1004.61 1004.41 1004.08 1003.66 1003.20 1002.75 1002.27 1001.72 1000.99 1000.00 998.70 997.13 995.40 993.73 992.39 991.61 991.54 992.24 993.61 995.45 997.49 999.47 1001.17 1002.50 1003.46 1004.16 1004.75 1005.38 1006.15 1007.07 1008.11 1009.14 1010.06 1010.79 1011.30 1011.61 1011.80 1011.97 1012.20
1004.20 1004.30 1004.47 1004.62 1004.68 1004.59 1004.35 1003.99 1003.59 1003.19 1002.79 1002.39 1001.91 1001.28 1000.44 999.41 998.25 997.11 996.19 995.67 995.66 996.19 997.21 998.56 1000.03 1001.44 1002.64 1003.56 1004.25 1004.79 1005.31 1005.92 1006.68 1007.59 1008.57 1009.52 1010.35 1010.97 1011.39 1011.64 1011.81 1012.00 1012.27
1003.89 1004.02 1004.25 1004.50 1004.66 1004.67 1004.51 1004.23 1003.88 1003.53 1003.21 1002.93 1002.65 1002.31 1001.85 1001.27 1000.60 999.93 999.38 999.09 999.14 999.55 1000.29 1001.23 1002.23 1003.17 1003.96 1004.57 1005.05 1005.47 1005.95 1006.55 1007.30 1008.17 1009.09 1009.94 1010.65 1011.17 1011.50 1011.69 1011.84 1012.04 1012.35
1003.70 1003.83 1004.08 1004.37 1004.59 1004.66 1004.57 1004.35 1004.05 1003.74 1003.48 1003.29 1003.16 1003.03 1002.86 1002.63 1002.33 1002.01 1001.76 1001.66 1001.77 1002.09 1002.61 1003.25 1003.92 1004.53 1005.03 1005.43 1005.77 1006.14 1006.59 1007.19 1007.93 1008.76 1009.61 1010.37 1010.97 1011.39 1011.63 1011.79 1011.91 1012.12 1012.45
1003.73 1003.81 1004.04 1004.31 1004.54 1004.63 1004.57 1004.39 1004.12 1003.85 1003.63 1003.51 1003.47 1003.49 1003.51 1003.51 1003.46 1003.39 1003.34 1003.37 1003.51 1003.79 1004.17 1004.61 1005.05 1005.45 1005.79 1006.08 1006.37 1006.71 1007.18 1007.78 1008.51 1009.29 1010.07 1010.74 1011.26 1011.60 1011.80 1011.92 1012.04 1012.25 1012.58
1003.97 1004.00 1004.17 1004.39 1004.57 1004.65 1004.58 1004.40 1004.15 1003.91 1003.73 1003.65 1003.68 1003.79 1003.92 1004.05 1004.15 1004.23 1004.30 1004.40 1004.56 1004.79 1005.08 1005.40 1005.72 1006.02 1006.27 1006.53 1006.81 1007.17 1007.65 1008.25 1008.96 1009.71 1010.43 1011.04 1011.50 1011.80 1011.98 1012.09 1012.22 1012.43 1012.77
1004.43 1004.41 1004.51 1004.65 1004.75 1004.76 1004.66 1004.46 1004.22 1003.99 1003.85 1003.81 1003.88 1004.04 1004.23 1004.43 1004.60 1004.73 1004.85 1004.98 1005.13 1005.33 1005.57 1005.82 1006.08 1006.33 1006.57 1006.82 1007.12 1007.50 1007.99 1008.59 1009.27 1009.99 1010.66 1011.23 1011.67 1011.97 1012.17 1012.31 1012.46 1012.69 1013.02
1005.02 1004.97 1005.01 1005.07 1005.09 1005.01 1004.85 1004.63 1004.38 1004.18 1004.06 1004.06 1004.16 1004.34 1004.56 1004.77 1004.96 1005.11 1005.23 1005.34 1005.47 1005.63 1005.83 1006.05 1006.29 1006.52 1006.76 1007.03 1007.34 1007.73 1008.22 1008.80 1009.45 1010.13 1010.78 1011.34 1011.79 1012.12 1012.36 1012.55 1012.74 1012.99 1013.31
1005.65 1005.60 1005.60 1005.59 1005.53 1005.39 1005.17 1004.92 1004.67 1004.48 1004.39 1004.41 1004.54 1004.73 1004.96 1005.17 1005.34 1005.47 1005.56 1005.65 1005.75 1005.88 1006.05 1006.25 1006.47 1006.70 1006.94 1007.21 1007.53 1007.91 1008.38 1008.93 1009.54 1010.18 1010.81 1011.37 1011.85 1012.23 1012.54 1012.79 1013.03 1013.30 1013.61
1006.20 1006.19 1006.18 1006.13 1006.02 1005.83 1005.57 1005.30 1005.06 1004.89 1004.83 1004.87 1005.01 1005.21 1005.42 1005.61 1005.76 1005.86 1005.93 1005.98 1006.06 1006.16 1006.31 1006.49 1006.71 1006.93 1007.17 1007.43 1007.73 1008.09 1008.52 1009.02 1009.59 1010.20 1010.81 1011.38 1011.89 1012.33 1012.69 1013.01 1013.30 1013.59 1013.89
1006.58 1006.63 1006.64 1006.59 1006.46 1006.25 1006.00 1005.74 1005.51 1005.37 1005.32 1005.38 1005.52 1005.71 1005.89 1006.06 1006.18 1006.25 1006.30 1006.34 1006.40 1006.50 1006.64 1006.81 1007.02 1007.24 1007.47 1007.71 1007.99 1008.30 1008.69 1009.14 1009.65 1010.22 1010.80 1011.38 1011.91 1012.39 1012.81 1013.18 1013.50 1013.81 1014.09
1006.75 1006.85 1006.91 1006.88 1006.78 1006.60 1006.38 1006.15 1005.96 1005.84 1005.81 1005.87 1005.99 1006.14 1006.30 1006.43 1006.52 1006.58 1006.62 1006.67 1006.74 1006.85 1007.00 1007.18 1007.39 1007.60 1007.82 1008.05 1008.29 1008.57 1008.91 1009.30 1009.77 1010.29 1010.84 1011.39 1011.93 1012.42 1012.86 1013.25 1013.59 1013.89 1014.17
1006.73 1006.87 1006.97 1006.99 1006.94 1006.82 1006.67 1006.50 1006.36 1006.28 1006.25 1006.29 1006.37 1006.48 1006.58 1006.67 1006.74 1006.79 1006.85 1006.91 1007.02 1007.16 1007.34 1007.55 1007.76 1007.98 1008.19 1008.41 1008.63 1008.88 1009.17 1009.53 1009.94 1010.41 1010.91 1011.41 1011.92 1012.39 1012.82 1013.20 1013.53 1013.83 1014.10
1006.59 1006.75 1006.87 1006.95 1006.96 1006.93 1006.86 1006.78 1006.70 1006.65 1006.62 1006.62 1006.65 1006.69 1006.73 1006.77 1006.81 1006.86 1006.94 1007.05 1007.21 1007.40 1007.62 1007.86 1008.10 1008.33 1008.55 1008.76 1008.97 1009.21 1009.47 1009.79 1010.15 1010.55 1010.99 1011.43 1011.87 1012.29 1012.67 1013.01 1013.33 1013.61 1013.87
1006.47 1006.59 1006.73 1006.84 1006.92 1006.98 1007.00 1007.01 1006.99 1006.96 1006.93 1006.89 1006.84 1006.80 1006.77 1006.75 1006.77 1006.82 1006.93 1007.09 1007.30 1007.55 1007.82 1008.10 1008.37 1008.62 1008.85 1009.06 1009.28 1009.51 1009.76 1010.04 1010.36 1010.70 1011.06 1011.42 1011.77 1012.10 1012.41 1012.70 1012.97 1013.24 1013.50
1006.47 1006.54 1006.65 1006.78 1006.91 1007.04 1007.15 1007.23 1007.27 1007.26 1007.21 1007.12 1007.00 1006.87 1006.76 1006.69 1006.67 1006.73 1006.87 1007.07 1007.34 1007.64 1007.95 1008.27 1008.56 1008.82 1009.06 1009.29 1009.51 1009.74 1009.99 1010.25 1010.53 1010.81 1011.09 1011.35 1011.60 1011.83 1012.05 1012.27 1012.51 1012.76 1013.03
1006.69 1006.69 1006.75 1006.87 1007.02 1007.20 1007.37 1007.50 1007.58 1007.58 1007.50 1007.35 1007.16 1006.95 1006.77 1006.64 1006.60 1006.65 1006.81 1007.05 1007.35 1007.69 1008.03 1008.35 1008.65 1008.93 1009.17 1009.41 1009.63 1009.87 1010.12 1010.37 1010.61 1010.84 1011.05 1011.22 1011.36 1011.49 1011.62 1011.77 1011.96 1012.19 1012.49
1007.18 1007.09 1007.09 1007.16 1007.31 1007.49 1007.69 1007.85 1007.94 1007.94 1007.83 1007.63 1007.37 1007.09 1006.83 1006.65 1006.57 1006.61 1006.78 1007.03 1007.35 1007.70 1008.05 1008.37 1008.66 1008.92 1009.15 1009.39 1009.63 1009.87 1010.12 1010.37 1010.59 1010.78 1010.92 1011.01 1011.06 1011.09 1011.14 1011.22 1011.37 1011.59 1011.90
1007.89 1007.73 1007.65 1007.67 1007.77 1007.94 1008.13 1008.29 1008.37 1008.34 1008.19 1007.95 1007.62 1007.28 1006.97 1006.74 1006.63 1006.65 1006.79 1007.03 1007.34 1007.67 1007.99 1008.29 1008.55 1008.78 1009.00 1009.22 1009.46 1009.72 1009.98 1010.23 1010.45 1010.61 1010.71 1010.73 1010.71 1010.67 1010.64 1010.66 1010.77 1010.97 1011.29
1008.76 1008.53 1008.39 1008.34 1008.39 1008.50 1008.65 1008.77 1008.82 1008.76 1008.58 1008.28 1007.91 1007.52 1007.16 1006.89 1006.73 1006.72 1006.83 1007.03 1007.30 1007.58 1007.85 1008.10 1008.31 1008.50 1008.69 1008.90 1009.14 1009.40 1009.68 1009.95 1010.17 1010.33 1010.40 1010.39 1010.32 1010.23 1010.14 1010.11 1010.17 1010.35 1010.66
1009.66 1009.40 1009.19 1009.08 1009.06 1009.11 1009.19 1009.27 1009.27 1009.17 1008.95 1008.62 1008.21 1007.78 1007.38 1007.07 1006.87 1006.80 1006.85 1007.00 1007.20 1007.41 1007.61 1007.78 1007.93 1008.07 1008.23 1008.42 1008.66 1008.94 1009.23 1009.52 1009.77 1009.94 1010.01 1009.99 1009.90 1009.77 1009.65 1009.57 1009.59 1009.74 1010.01
1010.49 1010.21 1009.97 1009.80 1009.71 1009.70 1009.72 1009.73 1009.69 1009.56 1009.31 1008.95 1008.52 1008.06 1007.63 1007.26 1007.01 1006.88 1006.86 1006.92 1007.03 1007.16 1007.27 1007.36 1007.45 1007.53 1007.65 1007.82 1008.05 1008.34 1008.65 1008.97 1009.24 1009.43 1009.53 1009.53 1009.44 1009.30 1009.15 1009.05 1009.03 1009.13 1009.37
Thickness
5810 5808 5804 5802 5801 5799 5798 5797 5795 5794 5793 5791 5790 5789 5789 5789 5788 5788 5788 5787 5786 5785 5783 5781 5779 5778 5776 5775 5774 5773 5771 5770 5768 5767 5765 5764 5762 5761 5760 5759 5759 5758 5757
5813 5808 5804 5802 5800 5798 5797 5796 5794 5793 5792 5790 5789 5789 5788 5788 5787 5787 5788 5787 5786 5784 5783 5781 5779 5778 5776 5775 5774 5773 5772 5770 5768 5767 5765 5763 5762 5761 5760 5759 5759 5757 5756
5814 5809 5804 5801 5799 5797 5796 5794 5793 5792 5791 5790 5789 5788 5787 5787 5786 5786 5786 5786 5785 5784 5782 5780 5779 5778 5776 5775 5774 5772 5771 5770 5768 5767 5765 5764 5762 5761 5761 5760 5758 5757 5756
5815 5809 5805 5801 5799 5797 5795 5794 5792 5791 5790 5789 5788 5787 5786 5786 5785 5785 5785 5784 5784 5783 5782 5781 5779 5778 5777 5775 5773 5772 5771 5770 5769 5767 5766 5765 5763 5761 5760 5759 5758 5756 5755
5815 5809 5803 5801 5799 5797 5794 5793 5791 5790 5789 5788 5787 5786 5785 5785 5784 5784 5784 5784 5783 5783 5782 5781 5780 5778 5777 5775 5774 5772 5771 5770 5769 5768 5767 5766 5763 5761 5760 5759 5757 5756 5754
5814 5809 5803 5801 5798 5796 5794 5792 5791 5790 5788 5788 5787 5786 5785 5784 5784 5784 5783 5783 5783 5782 5781 5780 5779 5778 5777 5776 5775 5773 5772 5771 5769 5769 5768 5766 5763 5761 5759 5758 5757 5755 5754
5814 5810 5804 5800 5798 5796 5794 5792 5791 5790 5788 5787 5786 5785 5784 5784 5784 5784 5783 5783 5782 5781 5781 5780 5779 5778 5777 5776 5775 5774 5772 5771 5770 5770 5769 5766 5764 5761 5759 5758 5756 5755 5754
5815 5811 5805 5800 5798 5796 5794 5793 5791 5790 5788 5787 5786 5785 5785 5784 5784 5784 5783 5783 5782 5781 5781 5780 5779 5778 5777 5776 5775 5774 5772 5771 5771 5771 5770 5767 5765 5762 5759 5757 5756 5754 5753
5816 5812 5806 5802 5798 5796 5794 5793 5791 5790 5789 5787 5787 5786 5785 5785 5784 5784 5783 5782 5782 5781 5780 5779 5779 5778 5777 5776 5775 5774 5773 5771 5770 5770 5770 5768 5766 5762 5759 5757 5755 5754 5753
5816 5812 5809 5806 5801 5798 5795 5793 5791 5790 5789 5788 5787 5786 5786 5785 5784 5784 5783 5782 5782 5781 5780 5780 5779 5778 5776 5775 5775 5774 5772 5771 5771 5771 5769 5766 5764 5761 5758 5757 5755 5753 5752
5812 5811 5809 5807 5804 5801 5798 5795 5792 5790 5789 5787 5787 5786 5786 5786 5785 5784 5784 5783 5782 5781 5781 5780 5779 5778 5777 5776 5775 5774 5772 5772 5772 5771 5768 5765 5763 5760 5758 5756 5755 5753 5752
5807 5809 5809 5806 5803 5802 5800 5797 5794 5792 5789 5788 5787 5787 5787 5787 5787 5786 5784 5783 5782 5782 5781 5780 5779 5778 5777 5776 5775 5774 5772 5772 5771 5769 5767 5764 5762 5760 5758 5756 5754 5753 5753
5809 5808 5808 5806 5803 5801 5800 5798 5796 5793 5791 5790 5788 5788 5788 5788 5787 5786 5785 5783 5782 5782 5781 5781 5779 5779 5778 5777 5776 5774 5773 5772 5772 5769 5765 5764 5762 5760 5758 5756 5754 5753 5753
5808 5807 5807 5805 5802 5800 5799 5798 5796 5794 5792 5791 5789 5789 5788 5788 5787 5786 5785 5784 5784 5783 5782 5781 5780 5780 5780 5778 5777 5775 5774 5772 5771 5768 5765 5763 5761 5760 5758 5756 5754 5753 5753
5808 5807 5806 5805 5801 5800 5798 5797 5797 5794 5792 5791 5789 5788 5788 5788 5786 5786 5785 5784 5784 5783 5782 5781 5781 5780 5778 5777 5776 5775 5773 5772 5770 5767 5764 5762 5761 5759 5758 5756 5754 5753 5753
5808 5807 5807 5805 5803 5801 5799 5797 5797 5795 5793 5792 5790 5788 5788 5787 5786 5785 5784 5783 5783 5782 5781 5780 5780 5779 5777 5776 5775 5774 5773 5771 5769 5767 5763 5761 5760 5759 5757 5755 5754 5753 5753
5809 5808 5807 5807 5804 5802 5800 5799 5798 5796 5795 5792 5790 5789 5788 5787 5786 5785 5783 5783 5782 5782 5781 5780 5779 5778 5777 5776 5774 5773 5772 5771 5769 5767 5765 5762 5760 5758 5757 5755 5754 5753 5753
5811 5808 5807 5809 5805 5803 5800 5799 5798 5797 5795 5793 5791 5789 5788 5786 5786 5785 5783 5783 5782 5781 5780 5778 5776 5775 5774 5772 5771 5772 5772 5771 5769 5768 5766 5763 5761 5759 5757 5756 5754 5753 5752
5812 5809 5807 5807 5805 5804 5802 5800 5798 5796 5795 5793 5792 5789 5788 5786 5785 5784 5783 5782 5782 5781 5779 5778 5776 5774 5771 5770 5770 5770 5771 5770 5769 5768 5766 5764 5762 5761 5758 5756 5755 5753 5752
5814 5811 5808 5807 5805 5804 5802 5800 5798 5796 5795 5794 5792 5789 5787 5786 5785 5784 5782 5782 5782 5780 5778 5776 5774 5773 5771 5770 5770 5770 5770 5770 5769 5767 5766 5765 5763 5762 5759 5756 5753 5752 5751
5814 5811 5808 5805 5804 5802 5799 5796 5794 5793 5794 5793 5792 5790 5788 5787 5785 5784 5782 5781 5780 5778 5776 5775 5773 5770 5769 5770 5766 5764 5766 5769 5768 5766 5766 5764 5763 5762 5760 5757 5755 5753 5751
5814 5812 5809 5806 5804 5802 5800 5798 5797 5796 5795 5794 5793 5791 5789 5787 5785 5785 5782 5780 5779 5776 5774 5773 5770 5767 5767 5769 5763 5757 5753 5755 5761 5767 5765 5763 5763 5762 5760 5759 5757 5755 5753
5816 5813 5810 5807 5805 5803 5802 5801 5799 5796 5794 5792 5790 5789 5789 5787 5785 5783 5781 5779 5778 5776 5773 5772 5770 5766 5763 5766 5767 5760 5751 5746 5753 5759 5761 5762 5762 5761 5761 5760 5758 5756 5752
5818 5816 5811 5808 5805 5803 5802 5799 5795 5790 5787 5788 5789 5789 5788 5787 5785 5783 5782 5779 5777 5775 5773 5771 5771 5768 5764 5761 5764 5765 5763 5760 5752 5749 5755 5759 5760 5760 5760 5760 5759 5757 5753
5821 5817 5812 5807 5804 5802 5800 5798 5794 5792 5790 5790 5789 5788 5786 5786 5785 5783 5782 5780 5777 5775 5773 5771 5769 5768 5766 5762 5761 5762 5761 5760 5759 5751 5746 5750 5754 5758 5759 5759 5758 5756 5754
5822 5818 5813 5806 5802 5801 5799 5796 5793 5790 5788 5786 5785 5784 5784 5784 5783 5782 5781 5779 5777 5775 5773 5770 5769 5767 5765 5763 5762 5761 5759 5756 5754 5752 5748 5748 5748 5753 5757 5757 5757 5756 5754